User: anonymous   Login
Location: Unspecified
(0.0000°N, 0.0000°E)
Time: 22:25:30
(UTC+00:00)
Language:

STARLINK-3917 - Orbit

View from above orbital plane
View from above orbital plane
View from above satellite
View from above satellite

Ground track
Ground track

The orbit is defined by the following mean orbital elements,

1 52588U          26145.36180514 +.00000000 +00000-0 +41063-4 0 00005
2 52588  53.2129 134.9277 0000850  74.7748 285.3338 15.08842800    03
Epoch (UTC): 25 May 2026 08:40:59
Eccentricity: 0.0000850
inclination: 53.2129°
perigee height: 539 km
apogee height: 540 km
right ascension of ascending node: 134.9277°
argument of perigee: 74.7748°
revolutions per day: 15.08842800
mean anomaly at epoch: 285.3338°

The dashed part of the orbit path shows where the satellite is in the earth's shadow,  

DLR